• în România
  • Lista ţărilor
  • Pe 7 zile
  • Temperatura apei
  • Hartă satelitară
  • Meteo pe hartă
  • Widget-uri
  • user-avatar
    Intrare

    Meteo pe oră la Novyy Bor

    Astăzi, 25 Septembrie, Marţi

    Timp Temperatura Precipitaţii Vânt Presiune Umiditate
    00:00 +5°C° 0.2 mm 6 m/s 733 mmHg 91%
    01:00 +5°C° 0.2 mm 6 m/s 734 mmHg 90%
    02:00 +6°C° 0 mm 4 m/s 735 mmHg 91%
    03:00 +5°C° 0 mm 5 m/s 735 mmHg 91%
    04:00 +5°C° 0 mm 5 m/s 736 mmHg 91%
    05:00 +3°C° 0 mm 5 m/s 737 mmHg 91%
    06:00 +3°C° 0 mm 5 m/s 738 mmHg 89%
    07:00 +5°C° 0 mm 5 m/s 738 mmHg 88%
    08:00 +5°C° 0 mm 5 m/s 739 mmHg 86%
    09:00 +5°C° 0 mm 5 m/s 740 mmHg 82%
    10:00 +6°C° 0 mm 5 m/s 740 mmHg 77%
    11:00 +7°C° 0 mm 5 m/s 741 mmHg 73%
    12:00 +7°C° 0.1 mm 5 m/s 742 mmHg 69%
    13:00 +8°C° 0.1 mm 5 m/s 742 mmHg 65%
    14:00 +8°C° 0.1 mm 5 m/s 743 mmHg 62%
    15:00 +8°C° 0.1 mm 5 m/s 743 mmHg 65%
    16:00 +7°C° 0.1 mm 4 m/s 744 mmHg 68%
    17:00 +6°C° 0.1 mm 4 m/s 745 mmHg 71%
    18:00 +5°C° 0 mm 4 m/s 745 mmHg 74%
    19:00 +5°C° 0 mm 4 m/s 746 mmHg 76%
    20:00 +4°C° 0 mm 4 m/s 747 mmHg 78%
    21:00 +3°C° 0 mm 3 m/s 747 mmHg 78%
    22:00 +3°C° 0 mm 3 m/s 748 mmHg 77%
    23:00 +2°C° 0 mm 3 m/s 749 mmHg 77%

    Mâine, 26 Septembrie, Miercuri

    Timp Temperatura Precipitaţii Vânt Presiune Umiditate
    00:00 +2°C° 0 mm 3 m/s 749 mmHg 79%
    01:00 +1°C° 0 mm 3 m/s 749 mmHg 81%
    02:00 +1°C° 0 mm 3 m/s 750 mmHg 84%
    03:00 +1°C° 0 mm 3 m/s 750 mmHg 86%
    04:00 +1°C° 0 mm 3 m/s 750 mmHg 89%
    05:00 +2°C° 0 mm 2 m/s 750 mmHg 92%
    06:00 +2°C° 0 mm 3 m/s 751 mmHg 88%
    07:00 +3°C° 0 mm 3 m/s 751 mmHg 83%
    08:00 +4°C° 0 mm 3 m/s 751 mmHg 79%
    09:00 +6°C° 0 mm 4 m/s 751 mmHg 72%
    10:00 +7°C° 0 mm 4 m/s 750 mmHg 65%
    11:00 +10°C° 0 mm 4 m/s 750 mmHg 59%
    12:00 +10°C° 0 mm 5 m/s 749 mmHg 58%
    13:00 +10°C° 0 mm 5 m/s 749 mmHg 56%
    14:00 +10°C° 0 mm 6 m/s 748 mmHg 55%
    15:00 +9°C° 0.2 mm 6 m/s 747 mmHg 63%
    16:00 +8°C° 0.2 mm 6 m/s 746 mmHg 70%
    17:00 +7°C° 0.2 mm 6 m/s 745 mmHg 78%
    18:00 +6°C° 1.2 mm 7 m/s 744 mmHg 81%
    19:00 +5°C° 1.2 mm 7 m/s 743 mmHg 85%
    20:00 +5°C° 1.2 mm 8 m/s 742 mmHg 89%
    21:00 +5°C° 1.3 mm 8 m/s 741 mmHg 89%
    22:00 +5°C° 1.3 mm 8 m/s 740 mmHg 89%
    23:00 +5°C° 1.3 mm 8 m/s 738 mmHg 90%

    Poimâine, 27 Septembrie, Joi

    Timp Temperatura Precipitaţii Vânt Presiune Umiditate
    00:00 +5°C° 0.6 mm 8 m/s 738 mmHg 90%
    01:00 +6°C° 0.6 mm 8 m/s 737 mmHg 90%
    02:00 +6°C° 0.6 mm 8 m/s 736 mmHg 90%
    03:00 +8°C° 0.9 mm 7 m/s 736 mmHg 91%
    04:00 +8°C° 0.9 mm 6 m/s 736 mmHg 92%
    05:00 +8°C° 0.9 mm 5 m/s 736 mmHg 93%
    06:00 +8°C° 0.2 mm 5 m/s 736 mmHg 90%
    07:00 +8°C° 0.2 mm 4 m/s 736 mmHg 88%
    08:00 +8°C° 0.2 mm 4 m/s 737 mmHg 85%
    09:00 +8°C° 0 mm 5 m/s 737 mmHg 77%
    10:00 +9°C° 0 mm 5 m/s 737 mmHg 69%
    11:00 +10°C° 0 mm 6 m/s 738 mmHg 61%
    12:00 +10°C° 0.1 mm 6 m/s 738 mmHg 58%
    13:00 +11°C° 0.1 mm 6 m/s 738 mmHg 56%
    14:00 +11°C° 0.1 mm 7 m/s 738 mmHg 53%
    15:00 +10°C° 0.1 mm 6 m/s 739 mmHg 59%
    16:00 +10°C° 0.1 mm 4 m/s 739 mmHg 64%
    17:00 +9°C° 0.1 mm 3 m/s 739 mmHg 70%
    18:00 +9°C° 0 mm 3 m/s 740 mmHg 72%
    19:00 +8°C° 0 mm 3 m/s 740 mmHg 73%
    20:00 +7°C° 0 mm 3 m/s 741 mmHg 75%
    21:00 +7°C° 0 mm 3 m/s 741 mmHg 76%
    22:00 +5°C° 0 mm 3 m/s 741 mmHg 77%
    23:00 +5°C° 0 mm 3 m/s 741 mmHg 78%

    28 Septembrie, Vineri

    Timp Temperatura Precipitaţii Vânt Presiune Umiditate
    00:00 +4°C° 0 mm 3 m/s 741 mmHg 81%
    01:00 +4°C° 0 mm 3 m/s 741 mmHg 83%
    02:00 +4°C° 0 mm 2 m/s 740 mmHg 86%
    03:00 +4°C° 0.4 mm 3 m/s 739 mmHg 87%
    04:00 +5°C° 0.4 mm 4 m/s 738 mmHg 88%
    05:00 +5°C° 0.4 mm 5 m/s 736 mmHg 89%
    06:00 +7°C° 1.3 mm 6 m/s 735 mmHg 90%
    07:00 +9°C° 1.3 mm 7 m/s 734 mmHg 90%
    08:00 +11°C° 1.3 mm 7 m/s 732 mmHg 91%
    09:00 +11°C° 1.1 mm 7 m/s 732 mmHg 89%
    10:00 +11°C° 1.1 mm 7 m/s 732 mmHg 86%
    11:00 +11°C° 1.1 mm 8 m/s 732 mmHg 84%
    12:00 +10°C° 0.6 mm 7 m/s 733 mmHg 84%
    13:00 +9°C° 0.6 mm 7 m/s 734 mmHg 84%
    14:00 +6°C° 0.6 mm 7 m/s 734 mmHg 84%
    15:00 +7°C° 0.1 mm 5 m/s 736 mmHg 84%
    16:00 +6°C° 0.1 mm 4 m/s 738 mmHg 84%
    17:00 +5°C° 0.1 mm 3 m/s 739 mmHg 84%
    18:00 +4°C° 0 mm 3 m/s 740 mmHg 87%
    19:00 +4°C° 0 mm 2 m/s 741 mmHg 90%
    20:00 +3°C° 0 mm 2 m/s 742 mmHg 92%
    21:00 +3°C° 0 mm 2 m/s 742 mmHg 93%
    22:00 +3°C° 0 mm 2 m/s 743 mmHg 93%
    23:00 +3°C° 0 mm 2 m/s 743 mmHg 94%

    29 Septembrie, Sâmbătă

    Timp Temperatura Precipitaţii Vânt Presiune Umiditate
    00:00 +3°C° 0.1 mm 2 m/s 744 mmHg 95%
    01:00 +3°C° 0.1 mm 2 m/s 744 mmHg 95%
    02:00 +3°C° 0.1 mm 2 m/s 744 mmHg 96%
    03:00 +3°C° 0 mm 2 m/s 745 mmHg 96%
    04:00 +2°C° 0 mm 2 m/s 745 mmHg 97%
    05:00 +2°C° 0 mm 1 m/s 746 mmHg 97%
    06:00 +2°C° 0 mm 2 m/s 746 mmHg 94%
    07:00 +2°C° 0 mm 2 m/s 747 mmHg 92%
    08:00 +3°C° 0 mm 2 m/s 748 mmHg 89%
    09:00 +4°C° 0 mm 2 m/s 748 mmHg 81%
    10:00 +5°C° 0 mm 2 m/s 749 mmHg 74%
    11:00 +6°C° 0 mm 2 m/s 749 mmHg 66%
    12:00 +7°C° 0.1 mm 3 m/s 750 mmHg 63%
    13:00 +7°C° 0.1 mm 3 m/s 750 mmHg 60%
    14:00 +7°C° 0.1 mm 3 m/s 750 mmHg 57%
    15:00 +6°C° 0 mm 2 m/s 750 mmHg 61%
    16:00 +5°C° 0 mm 2 m/s 751 mmHg 65%
    17:00 +5°C° 0 mm 1 m/s 751 mmHg 69%
    18:00 +4°C° 0 mm 1 m/s 751 mmHg 72%
    19:00 +3°C° 0 mm 1 m/s 752 mmHg 75%
    20:00 +2°C° 0 mm 1 m/s 752 mmHg 78%
    21:00 +2°C° 0 mm 1 m/s 753 mmHg 79%
    22:00 +1°C° 0 mm 1 m/s 753 mmHg 79%
    23:00 +1°C° 0 mm 1 m/s 753 mmHg 80%

    30 Septembrie, Duminică

    Timp Temperatura Precipitaţii Vânt Presiune Umiditate
    00:00 +1°C° 0 mm 1 m/s 753 mmHg 81%
    01:00 -1°C° 0 mm 2 m/s 753 mmHg 83%
    02:00 -1°C° 0 mm 2 m/s 753 mmHg 84%
    03:00 -1°C° 0 mm 2 m/s 753 mmHg 83%
    04:00 0°C° 0 mm 3 m/s 753 mmHg 82%
    05:00 0°C° 0 mm 3 m/s 752 mmHg 81%
    06:00 +1°C° 0 mm 3 m/s 752 mmHg 78%
    07:00 +1°C° 0 mm 4 m/s 752 mmHg 75%
    08:00 +3°C° 0 mm 4 m/s 752 mmHg 72%
    09:00 +5°C° 0 mm 5 m/s 752 mmHg 67%
    10:00 +6°C° 0 mm 5 m/s 752 mmHg 63%
    11:00 +8°C° 0 mm 5 m/s 751 mmHg 58%
    12:00 +9°C° 0 mm 5 m/s 751 mmHg 57%
    13:00 +9°C° 0 mm 5 m/s 751 mmHg 56%
    14:00 +10°C° 0 mm 5 m/s 750 mmHg 55%
    15:00 +10°C° 0 mm 4 m/s 750 mmHg 60%
    16:00 +8°C° 0 mm 4 m/s 750 mmHg 65%
    17:00 +8°C° 0 mm 3 m/s 750 mmHg 70%
    18:00 +8°C° 0 mm 3 m/s 750 mmHg 70%
    19:00 +8°C° 0 mm 3 m/s 750 mmHg 71%
    20:00 +6°C° 0 mm 4 m/s 750 mmHg 71%
    21:00 +6°C° 0 mm 4 m/s 750 mmHg 72%
    22:00 +6°C° 0 mm 4 m/s 750 mmHg 72%
    23:00 +7°C° 0 mm 3 m/s 750 mmHg 72%
    Arată mai mult